User: anonymous   Login
Location: Dob?e?
(49.9411°N, 15.1496°E)
Time: 17:07:33
(UTC+00:00)
Language:

STARLINK-1316 - Orbit

View from above orbital plane
View from above orbital plane
View from above satellite
View from above satellite

Ground track
Ground track

The orbit data is extracted from the following two-line orbital elements,

1 45415C 20019BH  21216.46515046 -.00022331  00000-0 -14962-2 0  2163
2 45415  53.0550 110.4755 0001989  82.3544  41.0907 15.06421186    11
Epoch (UTC): 04 August 2021 11:09:49
Eccentricity: 0.0001989
inclination: 53.0550°
perigee height: 546 km
apogee height: 548 km
right ascension of ascending node: 110.4755°
argument of perigee: 82.3544°
revolutions per day: 15.06421186
mean anomaly at epoch: 41.0907°
orbit number at epoch: 1

The dashed part of the orbit path shows where the satellite is in the earth's shadow,  

DLR